Weather History for KVVV - October, 2013

Change the Weather History Date:

Tuesday, October 29, 2013

  Actual Average (KAQP) Record (KAQP)
Temperature  
Mean Temperature 32 °F -  
Max Temperature 33 °F 47 °F 71 °F (2004)
Min Temperature 30 °F 30 °F 21 °F (2003)
Degree Days  
Heating Degree Days 34    
Moisture  
Dew Point 28 °F    
Average Humidity 86    
Maximum Humidity 93    
Minimum Humidity 64    
Precipitation  
Precipitation 0.16 in - - ()
Sea Level Pressure  
Sea Level Pressure 30.23 in    
Wind  
Wind Speed 6 mph (ENE)    
Max Wind Speed 10 mph    
Max Gust Speed -    
Visibility 6 miles    
Events Rain , Snow    
Averages and records for this station are not official NWS values.
T = Trace of Precipitation, MM = Missing Value Source: NWS Daily Summary

Daily Weather History Graph

Daily Weather History Graph

Search for Another Location

Airport or City:

Trip Planner

Search our weather history database for the weather conditions in past years. The results will help you decide how hot, cold, wet, or windy it might be!

Date:

Astronomy

Oct. 29, 2013 Rise Set
Actual Time 8:01 AM CDT 6:17 PM CDT
Civil Twilight 7:30 AM CDT 6:47 PM CDT
Nautical Twilight 6:55 AM CDT 7:22 PM CDT
Astronomical Twilight 6:21 AM CDT 7:56 PM CDT
Moon 2:38 AM CDT (10/29) 3:43 PM CDT (10/29)
Length of Visible Light 11h 17m
Length of Day
10h 16m
Waning Crescent, 25% of the Moon is Illuminated
Oct 29
Waning Crescent
Nov 3
New
Nov 9
First Quarter
Nov 17
Full
Nov 25
Last Quarter

Hourly Weather History & Observations

Time (CDT) Temp. Windchill Dew Point Humidity Pressure Visibility Wind Dir Wind Speed Gust Speed Precip Events Conditions
12:13 AM 32.0 °F 24.8 °F 21.2 °F 64% 30.38 in 10.0 mi ENE 8.1 mph - N/A   Overcast
12:34 AM 32.0 °F 26.4 °F 21.2 °F 64% 30.38 in 10.0 mi ENE 5.8 mph - N/A   Overcast
12:53 AM 32.0 °F 24.8 °F 21.2 °F 64% 30.39 in 10.0 mi ENE 8.1 mph - N/A   Overcast
1:14 AM 32.0 °F 24.8 °F 21.2 °F 64% 30.40 in 10.0 mi East 8.1 mph - N/A   Overcast
1:34 AM 32.0 °F 26.4 °F 21.2 °F 64% 30.40 in 10.0 mi ENE 5.8 mph - N/A   Overcast
1:53 AM 32.0 °F 25.6 °F 21.2 °F 64% 30.41 in 10.0 mi East 6.9 mph - N/A   Overcast
2:14 AM 32.0 °F 26.4 °F 21.2 °F 64% 30.41 in 10.0 mi ENE 5.8 mph - N/A   Overcast
2:34 AM 32.0 °F 27.5 °F 23.0 °F 69% 30.40 in 10.0 mi ENE 4.6 mph - N/A   Overcast
2:53 AM 32.0 °F 26.4 °F 24.8 °F 75% 30.39 in 7.0 mi ENE 5.8 mph - N/A Snow Light Snow
3:14 AM 30.2 °F 24.3 °F 26.6 °F 86% 30.39 in 1.5 mi ENE 5.8 mph - N/A Snow Heavy Snow
3:34 AM 30.2 °F 25.4 °F 26.6 °F 86% 30.38 in 1.2 mi ENE 4.6 mph - 0.01 in Snow Light Snow
3:53 AM 30.2 °F 23.4 °F 26.6 °F 86% 30.37 in 1.2 mi ENE 6.9 mph - 0.03 in Snow Snow
4:14 AM 30.2 °F 22.6 °F 28.4 °F 93% 30.35 in 1.0 mi ENE 8.1 mph - 0.02 in Snow Heavy Snow
4:33 AM 30.2 °F 25.4 °F 28.4 °F 93% 30.35 in 1.0 mi ENE 4.6 mph - 0.04 in Snow Light Snow
4:54 AM 30.2 °F 26.7 °F 28.4 °F 93% 30.34 in 1.2 mi ENE 3.5 mph - 0.06 in Snow Light Snow
5:14 AM 30.2 °F 25.4 °F 28.4 °F 93% 30.33 in 1.8 mi ENE 4.6 mph - 0.01 in Snow Light Snow
5:33 AM 30.2 °F 25.4 °F 28.4 °F 93% 30.33 in 2.5 mi ENE 4.6 mph - 0.03 in Snow Light Snow
5:54 AM 30.2 °F 26.7 °F 28.4 °F 93% 30.33 in 3.0 mi ENE 3.5 mph - 0.03 in Snow Heavy Snow
6:14 AM 30.2 °F 26.7 °F 28.4 °F 93% 30.32 in 4.0 mi ENE 3.5 mph - 0.01 in Snow Light Snow
6:33 AM 30.2 °F 23.4 °F 28.4 °F 93% 30.31 in 7.0 mi ENE 6.9 mph - 0.01 in Snow Light Snow
6:54 AM 30.2 °F 23.4 °F 28.4 °F 93% 30.29 in 7.0 mi NE 6.9 mph - 0.01 in Snow Light Snow
7:14 AM 30.2 °F 26.7 °F 28.4 °F 93% 30.28 in 7.0 mi ENE 3.5 mph - N/A   Overcast
7:34 AM 30.2 °F 26.7 °F 28.4 °F 93% 30.27 in 10.0 mi ENE 3.5 mph - N/A   Overcast
7:54 AM 30.2 °F 23.4 °F 28.4 °F 93% 30.27 in 10.0 mi East 6.9 mph - N/A   Overcast
8:13 AM 30.2 °F 25.4 °F 28.4 °F 93% 30.28 in 10.0 mi ENE 4.6 mph - N/A   Mostly Cloudy
8:34 AM 30.2 °F 25.4 °F 28.4 °F 93% 30.28 in 10.0 mi East 4.6 mph - N/A Snow Light Snow
8:53 AM 30.2 °F 25.4 °F 28.4 °F 93% 30.26 in 5.0 mi ENE 4.6 mph - N/A   Overcast
9:14 AM 30.2 °F 24.3 °F 28.4 °F 93% 30.26 in 10.0 mi East 5.8 mph - N/A   Overcast
9:34 AM 32.0 °F 28.7 °F 28.4 °F 87% 30.26 in 10.0 mi ENE 3.5 mph - N/A   Overcast
9:53 AM 32.0 °F 25.6 °F 28.4 °F 87% 30.26 in 10.0 mi ENE 6.9 mph - N/A   Overcast
10:14 AM 32.0 °F 26.4 °F 28.4 °F 87% 30.26 in 10.0 mi ENE 5.8 mph - N/A   Overcast
10:34 AM 32.0 °F 27.5 °F 28.4 °F 87% 30.26 in 10.0 mi ENE 4.6 mph - N/A   Overcast
10:53 AM 32.0 °F 27.5 °F 28.4 °F 87% 30.25 in 10.0 mi ENE 4.6 mph - N/A   Overcast
11:14 AM 32.0 °F 27.5 °F 28.4 °F 87% 30.25 in 10.0 mi ENE 4.6 mph - N/A   Light Drizzle
11:34 AM 32.0 °F 25.6 °F 28.4 °F 87% 30.24 in 5.0 mi ENE 6.9 mph - N/A   Overcast
11:53 AM 32.0 °F 26.4 °F 28.4 °F 87% 30.24 in 5.0 mi NE 5.8 mph - N/A Rain Light Rain
12:14 PM 32.0 °F 26.4 °F 28.4 °F 87% 30.23 in 4.0 mi ENE 5.8 mph - 0.01 in Snow Light Snow
12:34 PM 33.8 °F 27.7 °F 30.2 °F 87% 30.23 in 7.0 mi ENE 6.9 mph - 0.01 in   Light Drizzle
12:53 PM 33.8 °F 27.7 °F 28.4 °F 81% 30.22 in 7.0 mi ENE 6.9 mph - 0.02 in Rain Rain
1:14 PM 33.8 °F 27.0 °F 30.2 °F 87% 30.21 in 7.0 mi NE 8.1 mph - N/A   Drizzle
1:34 PM 33.8 °F 25.8 °F 30.2 °F 87% 30.20 in 5.0 mi NE 10.4 mph - N/A   Light Drizzle
1:53 PM 33.8 °F 26.4 °F 30.2 °F 87% 30.19 in 3.0 mi NE 9.2 mph - N/A Rain Light Rain
2:14 PM 33.8 °F 27.7 °F 30.2 °F 87% 30.18 in 4.0 mi NE 6.9 mph - 0.01 in   Light Drizzle
2:33 PM 33.8 °F 28.6 °F 30.2 °F 87% 30.17 in 2.5 mi ENE 5.8 mph - 0.01 in   Drizzle
2:54 PM 33.8 °F 28.6 °F 30.2 °F 87% 30.15 in 4.0 mi ENE 5.8 mph - 0.01 in   Drizzle
3:14 PM 33.8 °F 28.6 °F 30.2 °F 87% 30.14 in 7.0 mi ENE 5.8 mph - N/A   Overcast
3:33 PM 33.8 °F 27.7 °F 30.2 °F 87% 30.13 in 7.0 mi ENE 6.9 mph - N/A   Overcast
3:54 PM 33.8 °F 28.6 °F 30.2 °F 87% 30.13 in 7.0 mi ENE 5.8 mph - N/A   Overcast
4:14 PM 33.8 °F 27.7 °F 30.2 °F 87% 30.12 in 5.0 mi ENE 6.9 mph - N/A   Overcast
4:33 PM 33.8 °F 28.6 °F 30.2 °F 87% 30.12 in 5.0 mi ENE 5.8 mph - N/A   Overcast
4:54 PM 33.8 °F 28.6 °F 30.2 °F 87% 30.12 in 5.0 mi ENE 5.8 mph - N/A   Overcast
5:14 PM 33.8 °F 27.7 °F 30.2 °F 87% 30.11 in 7.0 mi ENE 6.9 mph - N/A   Overcast
5:33 PM 33.8 °F 28.6 °F 30.2 °F 87% 30.11 in 5.0 mi ENE 5.8 mph - N/A   Overcast
5:54 PM 33.8 °F 27.7 °F 30.2 °F 87% 30.11 in 10.0 mi ENE 6.9 mph - N/A   Overcast
6:14 PM 33.8 °F 28.6 °F 30.2 °F 87% 30.11 in 10.0 mi ENE 5.8 mph - N/A   Overcast
6:34 PM 33.8 °F 27.7 °F 30.2 °F 87% 30.10 in 10.0 mi East 6.9 mph - N/A   Overcast
6:53 PM 33.8 °F 26.4 °F 30.2 °F 87% 30.10 in 10.0 mi East 9.2 mph - N/A   Overcast
7:14 PM 33.8 °F 27.7 °F 30.2 °F 87% 30.10 in 7.0 mi ENE 6.9 mph - N/A   Overcast
7:34 PM 33.8 °F 27.0 °F 30.2 °F 87% 30.10 in 7.0 mi East 8.1 mph - N/A   Overcast
7:53 PM 33.8 °F 28.6 °F 30.2 °F 87% 30.10 in 7.0 mi ENE 5.8 mph - N/A   Overcast
8:14 PM 33.8 °F 29.6 °F 30.2 °F 87% 30.11 in 7.0 mi ENE 4.6 mph - N/A   Overcast
8:33 PM 33.8 °F 29.6 °F 30.2 °F 87% 30.10 in 7.0 mi ENE 4.6 mph - N/A   Overcast
8:53 PM 33.8 °F 29.6 °F 30.2 °F 87% 30.10 in 5.0 mi ENE 4.6 mph - N/A   Overcast
9:14 PM 33.8 °F 30.8 °F 30.2 °F 87% 30.10 in 7.0 mi ENE 3.5 mph - N/A   Overcast
9:34 PM 33.8 °F 29.6 °F 30.2 °F 87% 30.10 in 7.0 mi ENE 4.6 mph - N/A   Overcast
9:54 PM 33.8 °F 30.8 °F 30.2 °F 87% 30.10 in 5.0 mi ENE 3.5 mph - N/A   Overcast
10:14 PM 33.8 °F - 30.2 °F 87% 30.10 in 4.0 mi Calm Calm - N/A   Light Drizzle
10:34 PM 33.8 °F 30.8 °F 30.2 °F 87% 30.10 in 5.0 mi ENE 3.5 mph - N/A   Overcast
10:54 PM 33.8 °F 30.8 °F 30.2 °F 87% 30.10 in 5.0 mi NE 3.5 mph - N/A   Overcast
11:13 PM 33.8 °F - 30.2 °F 87% 30.09 in 5.0 mi Calm Calm - N/A   Overcast
11:34 PM 33.8 °F - 30.2 °F 87% 30.08 in 5.0 mi Calm Calm - N/A   Overcast
11:53 PM 33.8 °F - 30.2 °F 87% 30.08 in 5.0 mi Calm Calm - N/A   Overcast